www.pogodaiklimat.ru
ПОГОДА в Камберленде
Время
и дата
09:25 20.05
09:45 20.05
10:05 20.05
10:25 20.05
10:45 20.05
11:05 20.05
11:25 20.05
11:45 20.05
12:05 20.05
12:25 20.05
12:45 20.05
13:05 20.05
13:25 20.05
13:45 20.05
14:05 20.05
14:25 20.05
14:45 20.05
15:05 20.05
15:25 20.05
15:45 20.05
16:05 20.05
16:25 20.05
16:45 20.05
17:05 20.05
17:25 20.05
17:45 20.05
18:05 20.05
18:25 20.05
18:45 20.05
19:05 20.05
19:25 20.05
19:45 20.05
20:05 20.05
20:25 20.05
20:45 20.05
21:05 20.05
21:25 20.05
21:45 20.05
22:05 20.05
22:25 20.05
22:45 20.05
23:05 20.05
23:25 20.05
23:45 20.05
00:05 21.05
00:25 21.05
00:45 21.05
01:05 21.05
Ветер
(напр.,м/с)
Видим. Явления Облачность Т
(С)
Тd
(С)
f
(%)
Тe
(С)
Тes
(С)
Комфортность P
(гПа)
Po
(гПа)
Тmin
(С)
Tmax
(С)
R
(мм)
R24
(мм)
S
(см)
штиль 0 11 км 10/10 90 м +16.4 +15.2 93 +16 +16 991.6
ЮВ 2 16 км 10/10 150 м +17.3 +15.5 89 +18 +18 991.6
Ю 2 16 км 10/10 150 м +18.4 +16.1 86 +20 +20 991.6
ЮЗ 3 16 км 10/10 210 м +19.0 +16.7 87 +21 +21 комфорт 991.3
Ю 2 16 км 5/5 210 м +20.0 +16.8 82 +23 +31 комфорт 991.0
З 2 16 км ясно +21.3 +17.2 77 +25 +43 комфорт 991.0
Ю 3 16 км ясно +22.6 +17.3 72 +27 +43 душно 991.0
ЮВ 2 16 км ясно +23.8 +17.1 66 +28 +46 душно 990.6
Ю 2 16 км ясно +24.8 +16.8 61 +28 +48 жарко 990.6
Ю 2 16 км ясно +25.4 +15.8 55 +29 +48 душно 990.0
Ю 3 16 км ясно +26.4 +13.9 46 +29 +45 жарко 990.0 +14.4 +26.8
Ю 3 16 км ясно +26.6 +13.2 44 +29 +45 жарко 990.0
Ю 3 16 км ясно +26.9 +13.9 45 +29 +45 жарко 989.7
ЮЗ 2 16 км ясно +26.9 +14.7 47 +29 +49 жарко 989.7
ЮВ 2 16 км ясно +27.4 +13.7 43 +29 +46 жарко 989.7
ЮВ 2 16 км ясно +27.8 +13.5 41 +30 +46 жарко 989.3
В 2 16 км ясно +27.7 +12.3 38 +29 +46 жарко 989.0
Ю 2 16 км ясно +27.8 +13.2 41 +30 +43 жарко 989.0
штиль 0 16 км ясно +27.3 +13.0 41 +29 +47 жарко 988.7
В 3 16 км ясно +27.5 +13.6 42 +29 +40 жарко 988.7
В 2 16 км ясно +27.4 +13.6 43 +29 +38 жарко 988.3
ЮВ 2 16 км ясно +27.6 +13.1 41 +29 +38 жарко 988.3
В 2 16 км ясно +27.6 +12.8 40 +29 +38 жарко 988.3
ЮЗ 2 16 км ясно +27.5 +13.4 42 +29 +34 жарко 988.3
штиль 0 16 км ясно +26.4 +13.4 45 +28 +35 жарко 988.3
штиль 0 16 км ясно +26.1 +14.6 49 +29 +35 жарко 988.3
штиль 0 16 км ясно +25.8 +17.3 59 +30 +32 душно 988.3
штиль 0 16 км ясно +26.0 +17.0 58 +30 +32 душно 988.3
штиль 0 16 км ясно +25.1 +16.5 59 +29 +31 душно 988.3 +24.6 +28.3
штиль 0 16 км ясно +24.1 +17.3 66 +28 +28 душно 988.7
штиль 0 16 км ясно +22.2 +16.8 71 +27 +27 душно 988.7
Ю 2 16 км ясно +21.6 +15.6 69 +25 +25 комфорт 988.7
ЮЗ 2 16 км ясно +20.3 +15.2 73 +24 +24 комфорт 988.7
З 2 16 км ясно +20.5 +15.2 72 +24 +24 комфорт 988.7
штиль 0 11 км ясно +19.6 +15.5 77 +21 +21 комфорт 989.0
штиль 0 16 км ясно +18.8 +15.5 81 +20 +20 989.0
штиль 0 16 км ясно +19.2 +15.7 80 +21 +21 комфорт 989.0
СВ 2 16 км ясно +18.6 +15.7 83 +20 +20 989.3
СВ 2 16 км ясно +17.8 +16.0 89 +18 +18 989.3
штиль 0 16 км ясно +18.1 +15.6 85 +18 +18 989.3
С 2 16 км ясно +17.3 +15.8 91 +18 +18 989.3
СВ 3 16 км ясно +16.9 +15.1 89 +17 +17 989.3
СВ 3 16 км ясно +16.5 +14.9 90 +16 +16 989.3
С 2 16 км ясно +16.5 +14.9 90 +17 +17 989.3
штиль 0 16 км ясно +15.5 +14.5 94 +15 +15 989.3
штиль 0 16 км ясно +15.3 +14.5 95 +15 +15 989.0
В 2 16 км ясно +15.1 +14.3 95 +15 +15 989.0 +14.8 +25.3
СВ 2 16 км ясно +15.0 +14.2 95 +15 +15 989.0
Местоположение метеостанции Greater Cumberland Regional Airport: широта 39.6153 долгота -78.7608 высота над уровнем моря 236 м.
В архиве по умолчанию представлена погода в Камберленде за последние 1-2 суток. Обновление информации о фактической погоде в базе происходит ежечасно! Архивные данные за месяц целиком и за предыдущие месяцы Вы можете получить, выбрав интересующий диапазон дат из раскрывающегося списка и нажав кнопку "Ввод!".
Внимание! Архив погоды МЕТАР в базе сайта по станциям, не включенным в климатический монитор, хранится не более 60 дней. Нет смысла пытаться выбрать более раннюю дату.
*Определитесь, кто Вы:
Внимание! Время в таблицах - местное (без учета летнего времени). Для получения всемирного времени необходимо вычесть поправку, которая равна -5 ч.
Смотрите также архив погоды в соседних городах и на ближайших метеорологических станциях:
Партнеры нашего сайта:      
Пояснения к столбцам:
  • Ветер - указаны скорость ветра в м/с - средняя за 10 мин, порывы в срок и между сроками (в фигурных скобках) и направление, откуда дует ветер: С - северный,
  • СВ - северо-восточный, В - восточный, ЮВ - юго-восточный, Ю - южный, ЮЗ - юго-западный, З - западный, СЗ - северо-западный.
  • Видимость - горизонтальная дальность видимости в метрах или километрах. При видимости от 1 до 10 км при отсутствии осадков обычно наблюдается дымка, при ухудшении видимости до 1 км и менее - туман. В сухую погоду видимость может ухудшаться дымом, пылью или мглою.
  • Явления - указаны атмосферные явления, наблюдавшиеся в срок или в последний час перед сроком; фигурными скобками обозначены явления, наблюдавшиеся между сроками (за 1-3 часа до срока); квадратными скобками обозначены град или гололедные отложения с указанием их диаметра в мм.
  • Облачность - указаны через наклонную черту общая и нижняя облачность в баллах и высота нижней границы облаков в метрах; квадратными скобками обозначены формы облаков: Ci - перистые, Cs - перисто-слоистые, Cc - перисто-кучевые, Ac - высококучевые, As - высокослоистые, Sc - слоисто-кучевые, Ns - слоисто-дождевые, Cu - кучевые, Cb - кучево-дождевые. Подробнее классификацию облаков см. в Атласе облаков (PDF).
  • T - Температура воздуха - температура, измеренная на высоте 2 м над землей.
  • Td - Температура точки росы - температура, при понижении до которой содержащийся в воздухе водяной пар достигнет насыщения.
  • f - Относительная влажность воздуха - влажноcть воздуха, измеренная на высоте 2 м над землей.
  • Te - Эффективная температура - температура, которую ощущает одетый по сезону человек в тени. Характеристика душности погоды. При расчете учитывается влияние влажности воздуха и скорости ветра на теплоощущения человека.
  • Tes - Эффективная температура на солнце - температура, которую ощущает человек, с поправкой на солнечный нагрев. Характеристика знойности погоды. Зависит от высоты солнца над горизонтом, облачности и скорости ветра. Ночью, в пасмурную погоду, а также при ветре 12 м/с и более поправка равна нулю.
  • P - Атмосферное давление - приведенное к уровню моря атмосферное давление.
  • Po - Атмосферное давление - измеренное на уровне метеостанции атмосферное давление.
  • Tmin - Минимальная температура - минимум температуры воздуха на высоте 2 м над землей.
  • Tmax - Максимальная температура - максимум температуры воздуха на высоте 2 м над землей.
  • R - Количество осадков - Количество выпавших осадков за период времени, мм. При наведении курсора мыши на число - период времени, за который выпало указанное количество осадков.
  • R24 - Количество осадков - Количество выпавших осадков за 24 часа, мм.
  • S - Снежный покров - Высота снежного покрова, см. При наведении курсора мыши на число - состояние снежного покрова и степень покрытия местности в баллах.